When you browse on this site, cookies collect data to enhance your experience and personalize the content and advertising you see.
Visit our Privacy Policy to learn more. By continuing to use the site, you agree to this use of cookies and data.

Hourly Weather Kopylniki

Today, 14 July, Tuesday

Time Temperature Precipitation Wind Pressure Humidity
00:00 +10°C° 0 mm 2 mps 742 mmHg 96%
01:00 +10°C° 0 mm 2 mps 742 mmHg 96%
02:00 +10°C° 0 mm 1 mps 742 mmHg 96%
03:00 +9°C° 0 mm 2 mps 742 mmHg 95%
04:00 +9°C° 0 mm 2 mps 741 mmHg 94%
05:00 +9°C° 0 mm 3 mps 741 mmHg 94%
06:00 +11°C° 0 mm 3 mps 741 mmHg 86%
07:00 +13°C° 0 mm 3 mps 741 mmHg 79%
08:00 +16°C° 0 mm 3 mps 742 mmHg 72%
09:00 +17°C° 0 mm 3 mps 741 mmHg 65%
10:00 +19°C° 0 mm 4 mps 741 mmHg 57%
11:00 +20°C° 0 mm 4 mps 741 mmHg 50%
12:00 +20°C° 0 mm 4 mps 741 mmHg 49%
13:00 +21°C° 0 mm 4 mps 741 mmHg 48%
14:00 +21°C° 0 mm 4 mps 741 mmHg 48%
15:00 +21°C° 0 mm 4 mps 740 mmHg 51%
16:00 +20°C° 0 mm 4 mps 740 mmHg 54%
17:00 +20°C° 0 mm 4 mps 740 mmHg 57%
18:00 +19°C° 0 mm 4 mps 740 mmHg 60%
19:00 +18°C° 0 mm 4 mps 739 mmHg 63%
20:00 +15°C° 0 mm 4 mps 739 mmHg 66%
21:00 +15°C° 0 mm 4 mps 739 mmHg 65%
22:00 +15°C° 0 mm 4 mps 738 mmHg 63%
23:00 +14°C° 0 mm 4 mps 738 mmHg 62%

Tomorrow, 15 July, Wednesday

Time Temperature Precipitation Wind Pressure Humidity
00:00 +14°C° 0 mm 4 mps 738 mmHg 65%
01:00 +14°C° 0 mm 4 mps 738 mmHg 68%
02:00 +13°C° 0 mm 4 mps 738 mmHg 71%
03:00 +13°C° 0.1 mm 4 mps 738 mmHg 74%
04:00 +12°C° 0.1 mm 4 mps 737 mmHg 78%
05:00 +11°C° 0.1 mm 4 mps 737 mmHg 81%
06:00 +12°C° 0.1 mm 5 mps 737 mmHg 78%
07:00 +12°C° 0.1 mm 5 mps 737 mmHg 75%
08:00 +13°C° 0.1 mm 5 mps 737 mmHg 72%
09:00 +13°C° 0.8 mm 5 mps 737 mmHg 75%
10:00 +13°C° 0.8 mm 4 mps 737 mmHg 78%
11:00 +13°C° 0.8 mm 4 mps 737 mmHg 82%
12:00 +12°C° 1.4 mm 4 mps 737 mmHg 85%
13:00 +12°C° 1.4 mm 4 mps 737 mmHg 88%
14:00 +12°C° 1.4 mm 4 mps 738 mmHg 91%
15:00 +12°C° 0.4 mm 4 mps 738 mmHg 91%
16:00 +11°C° 0.4 mm 4 mps 738 mmHg 91%
17:00 +11°C° 0.4 mm 3 mps 738 mmHg 91%
18:00 +12°C° 0 mm 3 mps 738 mmHg 91%
19:00 +13°C° 0 mm 2 mps 739 mmHg 90%
20:00 +13°C° 0 mm 2 mps 739 mmHg 90%
21:00 +12°C° 0 mm 2 mps 739 mmHg 91%
22:00 +12°C° 0 mm 2 mps 739 mmHg 91%
23:00 +10°C° 0 mm 2 mps 738 mmHg 92%

Day after tomorrow, 16 July, Thursday

Time Temperature Precipitation Wind Pressure Humidity
00:00 +10°C° 0 mm 2 mps 739 mmHg 91%
01:00 +10°C° 0 mm 2 mps 739 mmHg 91%
02:00 +10°C° 0 mm 2 mps 739 mmHg 90%
03:00 +10°C° 0 mm 3 mps 739 mmHg 90%
04:00 +10°C° 0 mm 3 mps 739 mmHg 90%
05:00 +10°C° 0 mm 3 mps 739 mmHg 90%
06:00 +12°C° 0 mm 3 mps 739 mmHg 82%
07:00 +14°C° 0 mm 3 mps 739 mmHg 73%
08:00 +17°C° 0 mm 4 mps 739 mmHg 65%
09:00 +19°C° 0 mm 4 mps 739 mmHg 60%
10:00 +20°C° 0 mm 4 mps 739 mmHg 56%
11:00 +21°C° 0 mm 4 mps 739 mmHg 52%
12:00 +22°C° 0 mm 4 mps 739 mmHg 50%
13:00 +22°C° 0 mm 4 mps 739 mmHg 49%
14:00 +23°C° 0 mm 4 mps 739 mmHg 48%
15:00 +22°C° 0 mm 4 mps 739 mmHg 51%
16:00 +22°C° 0 mm 3 mps 739 mmHg 55%
17:00 +22°C° 0 mm 3 mps 739 mmHg 58%
18:00 +20°C° 0 mm 2 mps 739 mmHg 66%
19:00 +18°C° 0 mm 2 mps 739 mmHg 74%
20:00 +16°C° 0 mm 1 mps 739 mmHg 82%
21:00 +15°C° 0 mm 1 mps 739 mmHg 84%
22:00 +14°C° 0 mm 1 mps 740 mmHg 87%
23:00 +13°C° 0 mm 1 mps 740 mmHg 90%

17 July, Friday

Time Temperature Precipitation Wind Pressure Humidity
00:00 +13°C° 0 mm 1 mps 740 mmHg 91%
01:00 +13°C° 0 mm 1 mps 740 mmHg 92%
02:00 +12°C° 0 mm 1 mps 740 mmHg 93%
03:00 +12°C° 0 mm 1 mps 740 mmHg 93%
04:00 +13°C° 0 mm 1 mps 740 mmHg 92%
05:00 +13°C° 0 mm 1 mps 740 mmHg 92%
06:00 +15°C° 0 mm 1 mps 741 mmHg 84%
07:00 +16°C° 0 mm 1 mps 741 mmHg 75%
08:00 +18°C° 0 mm 2 mps 741 mmHg 67%
09:00 +19°C° 0 mm 2 mps 741 mmHg 62%
10:00 +20°C° 0 mm 2 mps 741 mmHg 58%
11:00 +21°C° 0 mm 2 mps 741 mmHg 53%
12:00 +22°C° 0 mm 3 mps 741 mmHg 51%
13:00 +22°C° 0 mm 3 mps 741 mmHg 49%
14:00 +24°C° 0 mm 3 mps 742 mmHg 47%
15:00 +24°C° 0 mm 3 mps 742 mmHg 48%
16:00 +22°C° 0 mm 3 mps 742 mmHg 49%
17:00 +23°C° 0 mm 2 mps 742 mmHg 50%
18:00 +20°C° 0 mm 2 mps 742 mmHg 58%
19:00 +18°C° 0 mm 2 mps 742 mmHg 66%
20:00 +16°C° 0 mm 1 mps 742 mmHg 74%
21:00 +15°C° 0 mm 1 mps 742 mmHg 75%
22:00 +14°C° 0 mm 1 mps 743 mmHg 75%
23:00 +13°C° 0 mm 1 mps 743 mmHg 76%

18 July, Saturday

Time Temperature Precipitation Wind Pressure Humidity
00:00 +12°C° 0 mm 1 mps 743 mmHg 78%
01:00 +12°C° 0 mm 1 mps 743 mmHg 81%
02:00 +12°C° 0 mm 1 mps 743 mmHg 83%
03:00 +12°C° 0 mm 1 mps 744 mmHg 85%
04:00 +12°C° 0 mm 1 mps 744 mmHg 87%
05:00 +12°C° 0 mm 1 mps 744 mmHg 88%
06:00 +14°C° 0 mm 1 mps 744 mmHg 81%
07:00 +16°C° 0 mm 2 mps 744 mmHg 74%
08:00 +18°C° 0 mm 2 mps 745 mmHg 67%
09:00 +19°C° 0 mm 2 mps 745 mmHg 62%
10:00 +21°C° 0 mm 2 mps 745 mmHg 56%
11:00 +23°C° 0 mm 2 mps 745 mmHg 50%
12:00 +24°C° 0 mm 2 mps 745 mmHg 47%
13:00 +24°C° 0 mm 2 mps 745 mmHg 44%
14:00 +25°C° 0 mm 2 mps 745 mmHg 41%
15:00 +25°C° 0 mm 2 mps 745 mmHg 44%
16:00 +25°C° 0 mm 2 mps 745 mmHg 46%
17:00 +24°C° 0 mm 2 mps 745 mmHg 49%
18:00 +21°C° 0 mm 2 mps 745 mmHg 57%
19:00 +20°C° 0 mm 1 mps 745 mmHg 65%
20:00 +18°C° 0 mm 1 mps 745 mmHg 73%
21:00 +16°C° 0 mm 1 mps 745 mmHg 75%
22:00 +15°C° 0 mm 1 mps 745 mmHg 77%
23:00 +14°C° 0 mm 1 mps 745 mmHg 78%

19 July, Sunday

Time Temperature Precipitation Wind Pressure Humidity
00:00 +13°C° 0 mm 1 mps 745 mmHg 78%
01:00 +13°C° 0 mm 1 mps 745 mmHg 77%
02:00 +12°C° 0 mm 1 mps 745 mmHg 77%
03:00 +12°C° 0 mm 1 mps 745 mmHg 77%
04:00 +12°C° 0 mm 1 mps 745 mmHg 77%
05:00 +12°C° 0 mm 1 mps 745 mmHg 78%
06:00 +14°C° 0 mm 1 mps 745 mmHg 70%
07:00 +18°C° 0 mm 1 mps 745 mmHg 63%
08:00 +20°C° 0 mm 1 mps 745 mmHg 56%
09:00 +22°C° 0 mm 1 mps 745 mmHg 51%
10:00 +23°C° 0 mm 2 mps 745 mmHg 45%
11:00 +25°C° 0 mm 2 mps 745 mmHg 40%
12:00 +25°C° 0 mm 2 mps 745 mmHg 38%
13:00 +25°C° 0 mm 2 mps 745 mmHg 36%
14:00 +26°C° 0 mm 2 mps 744 mmHg 34%
15:00 +26°C° 0 mm 2 mps 744 mmHg 39%
16:00 +25°C° 0 mm 2 mps 744 mmHg 45%
17:00 +25°C° 0 mm 2 mps 744 mmHg 50%
18:00 +23°C° 0 mm 2 mps 743 mmHg 58%
19:00 +20°C° 0 mm 2 mps 743 mmHg 66%
20:00 +18°C° 0 mm 2 mps 743 mmHg 75%
21:00 +17°C° 0 mm 2 mps 743 mmHg 77%
22:00 +16°C° 0 mm 1 mps 743 mmHg 78%
23:00 +15°C° 0 mm 1 mps 743 mmHg 80%
Show more